{"data":{"norad_id":28414,"epoch":"2026-05-25T04:46:44.793984Z","epoch_age_seconds":51116,"freshness":"FRESH","line1":"1 28414U 04035B   26145.19912956  .00005046  00000+0  34921-3 0  9997","line2":"2 28414  97.6061 163.3633 0003946 200.3819 159.7251 15.06121779183360","mean_motion":15.06121779,"eccentricity":0.0003946,"inclination_deg":97.6061,"raan_deg":163.3633,"arg_perigee_deg":200.3819,"mean_anomaly_deg":159.7251,"bstar":0.00034921,"rev_number":18336,"period_min":95.609798628375,"perigee_km":545.33131742324,"apogee_km":550.79747556535,"semimajor_km":6926.2013964943,"source":"CELESTRAK","updated_at":"2026-05-25T13:37:55.061202Z"}}